sat.trackr.live / text

‹ back to catalog

STARLINK-5888

NORAD 56348 · 2023-058AH

PAYLOAD ACTIVE UNKNOWN

§ Identity

Operator
Country
US
Launch date
2023-04-27
Launch site
AFWTR
Launch vehicle
Mass (kg)
RCS (m²)

Purposes: comms

External: N2YO · Heavens-Above · Gunter

§ Orbital elements

Epoch: 2026-05-25T00:21:26.095968Z

Period
95.63 min
Inclination
97.4469°
Eccentricity
0.0002261
Mean motion
15.05734445 rev/d
Perigee alt
547.7 km
Apogee alt
550.8 km
Semi-major
6,927.4 km
B*
-1.1848e-3
RAAN
144.8951°
Arg perigee
82.8449°
Mean anomaly
277.3035°
Rev number
16,960

§ Raw data

STARLINK-58881 56348U 23058AH  26145.01488537 -.00017152  00000+0 -11848-2 0  99992 56348  97.4469 144.8951 0002261  82.8449 277.3035 15.05734445169602

JSON: /api/v1/satellites/56348 · /tle

For live sub-satellite position, see the globe view (requires WebGL).

§ Visibility from observer

Set your observer location to see the next 7 days of passes ≥ 10°. The values pass through the URL so the page stays shareable.

No JS? Fill the form by hand. The geolocation button needs JavaScript.